Flag for U.S.A. Weather past 2 weeks in Dallas, Texas, U.S.A.

Now
30 °F

Clear.


Feels Like: 30 °F
Forecast: 26 / 46 °F
Wind: No wind

Location: Dallas Love Field

Current Time: Mar 6, 2015 at 3:45:13 AM

Latest Report: Mar 6, 2015 at 2:53 AM


Visibility: 10 mi

Pressure: 30.58 "Hg

Humidity: 75%

Dew point: 23 °F

Location of DallasLocation

Historic Weather in Dallas — Graph

°F

Dallas temperature yesterday

Maximum temperature yesterday: 39 °F (at 2:53 PM)
Minimum temperature yesterday: 25 °F (at 5:53 AM)
Average temperature yesterday: 32 °F

Past Weeks' High & Low Weather Summary

 TemperatureHumidityPressure
High70 °F (Feb 20, 3:53 PM)100% (Mar 2, 11:53 PM)30.64 "Hg (Mar 2, 11:53 PM)
Low25 °F (Mar 5, 5:53 AM)39% (Feb 19, 12:53 PM)29.66 "Hg (Feb 21, 3:53 AM)
Average39 °F78%30.21 "Hg
* Reported Feb 19 2:53 AM — Mar 6 2:53 AM, Dallas, Weather by CustomWeather, © 2015

Note: Actual official high and low records may vary slightly from our data, if they occured in-between our weather recording intervals... More about our weather records

Advertising

Dallas weather history for previous 24 hours

 ConditionsComfort  
Time TempWeatherWind HumidityBarometerVisibility
2:53 AM
Fri, Mar 6
30 °FClear.No wind75%30.58 "Hg10 mi
1:53 AM30 °FClear.No wind79%30.60 "Hg10 mi
12:53 AM29 °FPassing clouds.No wind82%30.60 "Hg9 mi
11:53 PM
Thu, Mar 5
31 °FClear.No wind79%30.60 "Hg10 mi
10:53 PM32 °FClear.No wind75%30.61 "Hg10 mi
9:53 PM34 °FClear.No wind64%30.62 "Hg10 mi
8:53 PM35 °FClear.6 mph56%30.61 "Hg10 mi
7:53 PM37 °FClear.No wind44%30.60 "Hg10 mi
6:53 PM37 °FClear.No wind46%30.58 "Hg10 mi
5:53 PM39 °FSunny.9 mph43%30.57 "Hg10 mi
4:53 PM39 °FSunny.8 mph43%30.57 "Hg10 mi
3:53 PM39 °FSunny.12 mph45%30.57 "Hg10 mi
2:53 PM39 °FSunny.9 mph45%30.59 "Hg10 mi
1:53 PM37 °FSunny.8 mph48%30.59 "Hg10 mi
12:53 PM36 °FSunny.14 mph46%30.62 "Hg10 mi
11:53 AM34 °FSunny.14 mph52%30.63 "Hg10 mi
10:53 AM32 °FSunny.9 mph59%30.64 "Hg10 mi
9:53 AM30 °FPassing clouds.10 mph61%30.62 "Hg10 mi
8:53 AM27 °FPassing clouds.13 mph66%30.60 "Hg10 mi
7:53 AM25 °FPassing clouds.12 mph72%30.58 "Hg10 mi
6:53 AM25 °FPartly sunny.12 mph75%30.54 "Hg10 mi
5:53 AM25 °FPartly cloudy.12 mph78%30.50 "Hg10 mi
4:53 AM26 °FPassing clouds.13 mph77%30.46 "Hg10 mi
3:53 AM26 °FMostly cloudy.15 mph84%30.43 "Hg10 mi
Weather by CustomWeather, © 2015

See weather overviewHow to use our weather pages